Vorticity
nan nan nan nan nan nan nan nan nan nan nan nan nan nan nan nan nan nan nan nan nan nan nan nan nan nan nan nan nan nan nan nan nan nan nan nan nan nan nan nan nan nan nan nan nan nan nan nan nan
nan 6 6 8 6 5 5 4 5 4 5 8 7 8 6 7 8 12 9 11 7 5 7 8 7 5 5 6 6 6 5 4 4 4 5 5 4 5 5 5 6 6 6 5 6 6 5 6 nan
nan 7 5 8 7 5 4 3 3 4 11 10 5 7 9 4 9 7 8 11 5 5 7 14 6 2 8 5 4 5 5 5 5 5 5 4 5 5 6 6 6 4 5 5 4 6 6 5 nan
nan 7 7 8 7 7 6 2 2 8 10 8 7 6 8 9 11 11 12 6 4 5 11 11 6 6 4 5 5 6 6 5 5 5 6 5 6 6 6 6 5 5 5 6 5 5 4 4 nan
nan 7 8 6 5 7 5 6 6 5 5 7 8 6 4 12 15 11 6 5 5 6 9 9 7 8 5 4 6 6 5 6 6 7 6 6 5 5 5 6 5 5 4 7 6 8 8 8 nan
nan 7 5 6 7 7 8 9 5 6 9 7 8 9 7 10 8 6 6 6 5 5 7 11 10 7 6 6 6 5 5 6 6 6 6 6 6 6 6 5 3 5 5 6 5 9 11 10 nan
nan 9 7 6 5 6 11 7 5 7 7 13 7 2 7 8 7 8 5 6 7 6 7 8 8 9 8 5 6 5 5 6 9 8 7 6 6 6 5 4 5 5 6 7 7 7 8 6 nan
nan 7 7 8 8 6 9 6 7 5 7 11 7 7 7 12 9 6 6 6 7 7 6 6 6 7 8 7 9 5 7 7 3 3 8 9 7 5 4 5 6 7 7 7 7 6 10 3 nan
nan 6 7 8 8 8 8 7 8 6 8 5 8 11 16 14 5 5 5 5 6 6 6 6 7 6 8 9 9 10 7 6 4 5 6 2 4 7 9 8 7 8 5 2 6 13 10 6 nan
nan 7 7 7 7 10 7 4 5 8 6 5 6 16 19 7 4 4 5 5 3 5 5 7 7 6 5 8 8 8 7 5 6 9 8 7 6 7 7 8 8 6 5 5 6 11 5 3 nan
nan 4 7 9 10 9 7 5 6 7 6 9 12 11 6 4 4 4 5 7 5 3 6 8 7 7 6 6 7 7 7 7 8 8 7 6 5 7 8 7 7 5 4 8 7 5 7 8 nan
nan 8 7 8 12 6 7 5 10 5 6 16 17 8 4 4 4 5 5 6 6 7 6 6 8 7 6 6 7 7 7 7 8 7 7 6 6 7 8 8 7 7 7 6 5 5 8 8 nan
nan 9 9 9 7 5 8 7 10 6 10 16 12 8 4 4 5 6 6 6 7 6 7 8 6 6 7 6 7 7 7 8 7 7 7 6 7 7 6 7 7 7 8 6 8 6 7 8 nan
nan 8 9 12 7 9 8 5 5 14 14 9 7 6 6 6 5 4 7 7 7 6 7 8 7 7 6 7 7 7 7 8 7 7 7 7 6 6 8 8 7 6 8 7 7 7 6 7 nan
nan 10 13 11 10 9 7 5 8 13 11 6 5 5 6 6 8 7 6 7 6 7 9 8 7 7 6 6 6 7 7 7 7 8 8 7 6 8 10 8 7 9 8 8 8 7 6 6 nan
nan 8 9 10 9 11 5 2 14 15 10 6 5 6 7 8 4 6 8 8 7 9 7 7 8 7 6 6 7 7 8 8 8 8 8 8 8 9 9 8 8 8 7 8 7 6 7 8 nan
nan 9 3 10 11 7 3 3 16 13 8 7 6 6 6 6 7 8 7 8 8 8 7 7 8 9 7 7 8 8 8 7 7 7 8 8 9 9 8 9 9 8 7 6 7 8 8 8 nan
nan 7 10 4 7 8 5 5 3 11 10 8 6 6 7 8 7 7 9 8 8 8 9 8 8 7 8 6 7 8 8 8 8 8 8 8 8 9 8 8 8 7 7 8 8 7 6 6 nan
nan 7 2 6 9 12 12 10 6 12 5 7 7 8 8 8 10 8 9 9 7 7 9 9 7 7 6 5 7 7 8 7 7 9 8 7 7 8 8 7 7 7 8 7 6 8 7 7 nan
nan 6 8 14 16 8 8 14 18 12 12 13 5 7 8 9 11 11 9 9 8 8 6 8 8 7 5 5 7 9 10 10 11 9 8 8 7 7 7 8 8 7 8 8 7 7 8 8 nan
nan 10 10 7 10 9 9 11 12 9 10 13 14 11 15 13 7 9 9 7 7 7 8 7 8 7 7 6 4 7 8 9 10 11 10 10 8 8 8 8 8 8 7 8 8 8 7 8 nan
nan 13 6 9 11 11 5 11 7 12 12 10 12 9 11 11 9 10 9 8 7 7 7 9 9 7 8 7 4 6 6 7 8 9 10 11 9 8 8 8 8 8 8 9 8 8 7 8 nan
nan 3 14 17 9 7 6 15 7 7 12 16 16 10 7 10 10 9 10 9 7 9 8 8 9 8 9 7 6 4 5 7 9 10 10 8 9 9 9 8 8 8 7 9 9 8 7 7 nan
nan 8 7 11 9 7 13 6 7 8 8 6 13 16 10 10 11 8 10 11 10 7 10 10 9 7 8 8 8 8 5 6 6 8 7 8 9 10 9 9 8 8 8 8 8 8 9 8 nan
nan 8 7 5 12 10 8 8 9 5 11 9 9 15 15 12 11 11 10 9 9 8 6 8 8 8 8 8 8 8 7 8 7 6 7 7 7 9 10 9 8 8 9 8 8 8 9 8 nan
nan 6 8 11 6 10 9 6 9 9 8 17 20 17 15 12 11 11 9 8 9 8 7 7 7 8 8 8 7 7 8 6 9 8 8 8 8 8 10 9 8 7 8 8 8 8 9 9 nan
nan 10 9 6 8 12 6 4 8 7 8 13 19 18 11 11 12 10 10 9 10 9 9 7 6 7 9 8 8 8 8 8 8 9 7 8 8 9 10 9 9 9 8 9 8 8 8 8 nan
nan 6 6 10 13 6 8 12 7 3 6 3 7 13 14 12 12 13 12 10 9 10 9 8 9 10 7 7 8 9 9 7 8 9 9 7 8 9 9 10 9 9 9 9 8 7 10 8 nan
nan 7 10 15 9 9 9 10 12 5 2 4 5 8 16 17 12 11 12 12 10 11 12 9 9 10 7 7 8 8 10 9 8 8 8 8 8 9 8 10 10 10 9 9 8 7 9 8 nan
nan nan nan nan nan nan nan nan nan nan nan nan nan nan nan nan nan nan nan nan nan nan nan nan nan nan nan nan nan nan nan nan nan nan nan nan nan nan nan nan nan nan nan nan nan nan nan nan nan
CAPE
456 518 342 0 0 1 16 107 169 201 235 58 64 62 36 37 8 0 154 334 704 980 1902 2299 2933 2270 2109 2541 2588 2590 2181 2062 2302 2288 1905 1282 1155 1135 1178 1282 1365 1404 1703 1737 1771 1695 1726 1713 1648
206 436 329 0 1 11 10 173 141 195 108 123 99 29 2 12 147 311 291 573 800 1213 1928 1942 2316 2781 2408 2164 2315 2517 1924 1703 1774 1822 1802 1511 1385 1392 1481 1434 1437 1914 1697 1615 1794 1769 1598 1662 1509
179 811 5 0 0 0 98 109 161 65 132 217 134 47 0 0 187 209 200 640 949 1361 1520 1528 1426 2163 2136 2603 2366 2522 2235 2055 1973 1834 1693 1678 1781 1701 1577 1655 1975 2024 1716 1672 1655 1595 1397 1330 1263
97 124 0 0 0 2 6 24 27 27 285 235 129 68 0 0 147 107 445 838 1087 1471 1627 2300 856 1271 2168 2402 2379 1973 2180 2308 2099 2010 2087 2030 1946 1707 1561 1818 1986 1606 1705 1812 1523 1420 1495 1355 1106
386 0 0 0 0 0 1 5 7 108 316 425 192 3 0 0 54 355 772 915 1139 1437 1665 2065 2803 2289 2301 2379 2275 2502 2364 2298 2123 1990 2115 2070 1921 1894 1820 1611 1495 1757 1544 1367 1195 1131 1289 1406 1052
75 0 0 0 35 0 1 1 12 35 274 116 0 0 0 22 275 414 651 837 1099 1267 1369 1494 2050 2099 2076 2156 2004 1996 2177 2043 2147 1943 2089 2114 2008 1507 1378 1671 2084 1777 1547 1377 1448 1385 1164 1236 1135
217 0 0 0 14 0 15 0 7 75 365 365 46 0 12 0 57 174 357 606 947 1206 1428 1386 1505 2022 2224 2193 2121 1955 1887 1893 1856 1595 1886 1951 2194 1627 1746 2039 1682 1742 1449 1265 880 1279 1218 1285 1318
18 0 0 1 1 0 0 0 2 121 205 142 11 1 15 18 0 106 445 634 982 1187 1304 1274 1301 1044 1557 1659 1919 1827 1858 1334 800 759 1249 1672 2233 1771 1995 1578 1318 1345 987 967 1023 1034 1491 1466 1195
0 0 0 1 41 10 0 0 100 97 236 311 165 4 0 87 154 232 318 460 679 861 822 524 214 283 676 754 1190 1704 1643 926 354 612 1002 1900 1442 1196 1299 994 1106 584 853 1138 909 532 1288 523 658
0 0 0 7 13 38 105 48 212 362 176 93 17 10 99 199 153 148 213 292 496 644 640 474 150 515 435 549 597 708 699 534 645 947 1164 1150 1065 888 900 891 552 1647 1219 179 830 1316 934 312 425
11 19 0 95 88 74 150 78 135 242 213 50 0 4 171 131 134 106 111 170 249 315 508 446 226 350 317 554 385 546 242 290 482 700 916 1044 836 512 277 330 571 513 469 344 141 63 74 53 384
134 69 50 158 405 283 123 195 283 311 90 109 0 0 36 43 36 51 70 36 58 86 271 355 251 247 236 456 369 373 234 249 269 418 621 481 296 147 234 316 192 177 95 164 97 146 150 62 64
257 98 43 109 363 283 744 420 308 422 256 116 0 0 10 0 0 0 29 0 29 64 197 278 249 188 95 413 231 230 211 214 202 266 159 38 39 83 139 227 144 173 126 155 94 102 251 228 184
0 8 94 27 279 525 583 602 428 203 296 161 57 0 0 0 0 0 1 0 1 60 164 227 287 119 3 157 174 122 130 149 144 230 162 0 0 65 180 121 142 227 246 373 177 214 251 134 29
0 85 51 181 32 387 580 547 567 271 354 337 147 96 51 6 0 3 33 42 35 74 130 201 261 131 0 75 110 65 56 152 218 201 237 34 24 202 103 62 157 219 397 136 174 186 145 173 25
0 0 0 0 52 85 416 251 118 340 439 456 349 201 160 100 112 79 45 86 50 49 127 142 373 82 6 22 52 122 48 170 282 184 192 191 137 279 126 210 353 326 147 256 213 167 78 115 69
0 0 0 0 114 131 317 332 114 375 411 526 524 437 327 204 89 82 50 91 62 19 64 115 115 0 17 16 39 97 45 97 162 117 146 123 435 494 242 213 180 125 119 238 227 149 25 43 37
0 0 0 0 0 44 237 321 153 447 559 516 532 445 401 345 204 80 10 76 47 19 27 90 94 0 4 40 24 22 9 13 31 21 74 131 420 629 275 93 91 115 147 143 52 36 26 2 0
0 0 0 0 0 0 0 0 110 537 436 507 358 302 299 305 233 127 23 17 105 52 14 47 85 7 0 24 60 46 64 8 0 0 25 44 357 555 441 245 121 115 59 68 17 3 5 12 0
0 0 0 0 0 0 0 2 2 374 485 307 352 208 70 49 236 101 24 3 76 67 75 84 102 44 48 55 0 0 0 0 1 0 0 23 199 305 538 502 569 280 59 14 35 3 0 2 35
0 0 0 0 0 8 0 0 0 1 401 574 284 151 0 135 237 118 40 16 63 79 142 101 114 66 67 41 0 0 0 0 1 1 1 15 178 365 291 391 592 375 141 49 35 97 39 30 0
0 0 0 0 0 0 0 0 0 0 0 410 536 487 125 30 188 140 59 29 121 126 156 129 78 94 46 0 0 0 0 15 14 10 11 50 297 293 510 504 313 716 533 87 27 129 105 1 0
0 0 0 0 0 0 0 0 0 0 0 0 170 419 455 9 122 62 46 41 157 184 237 128 40 120 99 22 5 0 0 0 8 11 10 53 338 43 339 634 424 687 787 536 611 866 200 0 1
0 0 0 0 0 0 0 0 0 0 0 0 48 263 352 199 16 89 74 75 151 173 260 141 115 124 47 33 0 2 0 0 0 0 4 17 67 467 116 483 684 254 581 617 619 832 825 222 767
0 0 0 0 0 0 0 0 0 0 0 0 0 84 309 128 109 1 92 176 177 221 259 201 151 163 48 62 17 0 0 0 0 0 0 0 0 24 248 400 495 344 497 631 551 472 643 805 987
0 0 0 0 0 0 0 0 0 0 0 0 0 1 194 58 126 20 16 223 267 353 313 312 176 169 78 78 23 0 0 0 0 0 0 0 1 4 13 203 747 685 492 630 581 377 472 448 968
0 0 0 0 0 0 0 0 0 0 0 0 0 19 265 132 11 164 31 175 313 403 386 340 234 193 102 135 76 2 0 0 0 0 0 0 0 3 21 130 482 904 733 682 714 542 603 731 764
0 0 0 0 0 0 0 0 0 0 0 0 0 0 0 10 66 259 131 242 356 469 482 390 298 235 123 140 104 63 1 0 0 0 0 0 0 16 71 149 427 815 1002 934 762 788 706 669 621
0 0 0 0 0 0 0 0 0 0 0 0 0 0 0 0 3 354 266 298 445 498 588 485 333 234 105 114 91 105 54 0 0 2 45 94 154 170 110 116 385 636 883 923 688 821 926 979 951
0 0 0 0 0 0 0 0 0 0 0 0 0 0 14 0 0 240 305 250 441 557 613 625 470 242 185 188 153 199 192 110 11 13 59 124 283 429 404 314 444 688 915 920 754 907 1041 950 866